Weather Service Report


368 
ASUS41 KPHI 010412
RWRPHI

REGIONAL WEATHER ROUNDUP
NATIONAL WEATHER SERVICE MOUNT HOLLY NJ
1100 PM EST SAT FEB 28 2015

NOTE:  "FAIR" INDICATES FEW OR NO CLOUDS BELOW 12,000 FEET WITH NO
SIGNIFICANT WEATHER AND/OR OBSTRUCTIONS TO VISIBILITY.

 * = STATION DOES NOT REPORT PRECIPITATION (E.G. RAIN, SNOW, ETC.) 
        OR FOG.

NJZ015>026-010500-
SOUTHERN NEW JERSEY
  
CITY           SKY/WX    TMP DP  RH WIND       PRES   REMARKS
POMONA         NOT AVBL                                               
RIO GRANDE*    CLEAR     16   7  67 CALM      30.77F                  
MILLVILLE      CLEAR     16   9  74 CALM      30.76F                  
WRIGHTSTOWN    CLEAR     15   6  67 CALM      30.73F                  
MOUNT HOLLY    CLEAR     19   7  59 CALM      30.76F                  
TRENTON        CLEAR     18   2  49 CALM      30.75F                  

$$
NJZ001>014-010500-
NORTHERN NEW JERSEY
  
CITY           SKY/WX    TMP DP  RH WIND       PRES   REMARKS
SUSSEX         CLEAR     10   1  67 W3        30.71F                  
ANDOVER*         N/A      5   0  79 CALM      30.71F                  
MORRISTOWN     CLEAR     12   5  73 CALM      30.75F                  
NEWARK         PTCLDY    23   3  42 S5        30.76S WCI  17          
TETERBORO      CLEAR     19   4  51 CALM      30.75S                  
CALDWELL       CLEAR     14   2  58 CALM      30.75F                  
SOMERVILLE     CLEAR     12   3  67 CALM      30.75R                  
ALLAIRE*       CLEAR     21   7  53 SW5       30.75F WCI  15          
TOMS RIVER*    CLEAR     12   7  79 CALM      30.77F                  

$$
PAZ043-044-047-054-055-060>062-066>071-010500-
EASTERN PENNSYLVANIA
  
CITY           SKY/WX    TMP DP  RH WIND       PRES   REMARKS
PHILADELPHIA   CLEAR     23   4  44 W6        30.77F WCI  16          
NORTH PHILA    CLEAR     22   4  46 CALM      30.77F                  
DOYLESTOWN     CLEAR     14   4  64 CALM      30.72F                  
QUAKERTOWN*    CLEAR      9   1  72 CALM      30.73F                  
POTTSTOWN      CLEAR     15   4  61 CALM      30.75F                  
LANCASTER      CLEAR     16   3  56 E3        30.72F                  
COATESVILLE    CLEAR     21   1  42 CALM      30.71F                  
READING        CLEAR     15   6  67 N3        30.72F                  
ALLENTOWN      CLEAR     13  -1  54 CALM      30.73F                  
MOUNT POCONO   FAIR       0  -6  76 NW3       30.59F                  
HAZLETON       CLEAR      9   1  72 MISG      30.64F                  
WILKES BARRE   CLEAR     13  -2  51 E7        30.66F WCI   3          

$$
DEZALL-MDZ008-012-015-019-020-010500-
DELAWARE AND EASTERN MARYLAND
  
CITY           SKY/WX    TMP DP  RH WIND       PRES   REMARKS
WILMINGTON     CLEAR     22   4  46 W3        30.77F                  
DOVER          CLEAR     20  11  68 CALM      30.76F                  
GEORGETOWN     CLEAR     17  10  74 CALM      30.78F                  
EASTON         CLEAR     22  12  67 CALM      30.81S                  
PATUXENT       CLEAR     17  10  74 CALM      30.77F                  
OCEAN CITY     CLEAR     16  11  80 CALM      30.79S                  
WALLOPS ISLAND FAIR      18  13  80 NW3       30.79S                  
CAMBRIDGE      CLEAR     21  14  73 CALM      30.77F                  
SALISBURY      CLEAR     19  12  74 CALM      30.78F                  

$$
PAZ001-021-NYZ056-072-MDZ011-DCZ001-010500-
OTHER NEARBY LOCATIONS
  
CITY           SKY/WX    TMP DP  RH WIND       PRES   REMARKS
HARRISBURG     CLEAR     15   6  67 E5        30.72F WCI   8          
STATE COLLEGE  PTCLDY    17  -1  44 W3        30.62F                  
WILLIAMSPORT   CLEAR     13   2  61 CALM      30.70F                  
BINGHAMTON     PTCLDY    13  -4  46 S3        30.58F                  
NEW YORK CITY  CLEAR     27   0  31 W3        30.76S                  
BALTIMORE      CLEAR     17   6  62 CALM      30.75F                  
WASHINGTON DC  PTCLDY    25   9  50 S5        30.77F WCI  19          

$$

Return to Home page


Western Regional Climate Center, wrcc@dri.edu